Date String (YYYY-MM-DD hh:mm:ss) UTC,Instrument flags,absolute air pressure of the measurement (hPa),sample flow rate (lpm),inlet stack bypass flow (lpm),air temperature of the measurement (°C),ambient temperature measured by the external sensor (°C),aerosol sample conditioner tube jacket temperature (°C),OPC LED temperature (°C),internal box temperature (°C),relative humidity of the measurement (%),span deviation,mass concentration of particles derived from Lorenz-Mie calculation of OPC scattering (μg/m³),mass concentration of particles derived from Lorenz-Mie calculation of OPC scattering (μg/m³),mass concentration of particles derived from Lorenz-Mie calculation of OPC scattering (μg/m³)
DateTimeUTC,F1_M11,P_M11,Q1_M11,Q2_M11,T1_M11,T2_M11,T3_M11,T4_M11,T5_M11,U1_M11,ZSPAN_M11,X2_M11,X0_M11,X1_M11
2023-09-27 04:00:00,SystemResetWarning,0833.8,5.00,000.00,028.5,027.3,000.0,036.8,030.4,15.7,0004.1,0005.93,0016.14,0004.52
2023-09-27 04:01:00,SystemResetWarning,0833.8,4.98,000.00,028.5,025.6,000.0,036.8,030.2,15.8,0000.0,0005.97,0016.53,0004.51
2023-09-27 04:02:00,SystemResetWarning,0833.8,5.01,000.00,028.4,024.5,000.0,036.7,030.0,15.8,0001.4,0005.96,0016.85,0004.51
2023-09-27 04:03:00,SystemResetWarning,0833.8,5.01,000.00,028.3,024.5,000.0,036.7,029.8,16.0,0002.0,0005.98,0016.41,0004.52
2023-09-27 04:04:00,SystemResetWarning,0833.8,5.00,000.00,028.2,024.8,000.0,036.7,029.7,16.0,0001.1,0005.96,0014.98,0004.51
2023-09-27 04:05:00,SystemResetWarning,0833.8,4.99,000.00,028.2,025.2,000.0,036.7,029.8,16.0,0002.7,0005.94,0014.11,0004.50
2023-09-27 04:06:00,SystemResetWarning,0833.8,4.99,000.00,028.2,025.5,000.0,036.7,029.8,15.9,0002.3,0005.91,0013.93,0004.49
2023-09-27 04:07:00,SystemResetWarning,0833.8,5.00,000.00,028.1,025.9,000.0,036.7,029.9,16.0,0001.9,0005.90,0014.25,0004.47
2023-09-27 04:08:00,SystemResetWarning,0833.8,5.01,000.00,028.2,026.1,000.0,036.7,029.9,16.0,0001.4,0005.88,0013.84,0004.47
2023-09-27 04:09:00,SystemResetWarning,0833.8,5.00,000.00,028.2,026.3,000.0,036.7,030.0,16.0,0000.9,0005.90,0014.95,0004.47
2023-09-27 04:10:00,SystemResetWarning,0833.8,5.00,000.00,028.2,026.5,000.0,036.7,030.0,16.0,0000.8,0005.96,0016.19,0004.49
2023-09-27 04:11:00,SystemResetWarning,0833.8,4.99,000.00,028.2,026.7,000.0,036.7,030.0,15.9,0000.8,0005.91,0016.15,0004.51
2023-09-27 04:12:00,SystemResetWarning,0833.8,4.99,000.00,028.2,026.8,000.0,036.7,030.1,15.9,0001.2,0005.87,0016.07,0004.52
2023-09-27 04:13:00,SystemResetWarning,0833.7,5.00,000.00,028.3,026.9,000.0,036.8,030.1,15.9,0001.1,0005.91,0016.26,0004.52
2023-09-27 04:14:00,SystemResetWarning,0833.7,5.01,000.00,028.3,027.0,000.0,036.8,030.1,15.8,0001.4,0005.90,0016.14,0004.52
2023-09-27 04:15:00,SystemResetWarning,0833.8,5.00,000.00,028.3,027.1,000.0,036.8,030.2,15.8,0001.8,0005.90,0017.63,0004.53
2023-09-27 04:16:00,SystemResetWarning,0833.8,5.00,000.00,028.4,027.2,000.0,036.8,030.2,15.8,0002.4,0005.91,0017.75,0004.54
2023-09-27 04:17:00,SystemResetWarning,0833.8,4.99,000.00,028.4,027.2,000.0,036.8,030.2,15.7,0002.5,0005.93,0017.97,0004.55
2023-09-27 04:18:00,SystemResetWarning,0833.8,5.00,000.00,028.4,027.3,000.0,036.8,030.3,15.7,0002.7,0005.93,0018.75,0004.57
2023-09-27 04:19:00,SystemResetWarning,0833.8,5.00,000.00,028.5,027.3,000.0,036.8,030.3,15.7,0002.7,0005.91,0018.24,0004.58
2023-09-27 04:20:00,SystemResetWarning,0833.9,5.00,000.00,028.5,027.4,000.0,036.9,030.3,15.7,0003.2,0005.89,0017.62,0004.59
2023-09-27 04:21:00,SystemResetWarning,0833.8,5.00,000.00,028.5,027.0,000.0,036.9,030.3,15.7,0003.4,0005.86,0017.01,0004.60
2023-09-27 04:22:00,SystemResetWarning,0833.8,5.00,000.00,028.5,025.2,000.0,036.8,030.1,15.6,0003.5,0005.83,0016.74,0004.59
2023-09-27 04:23:00,SystemResetWarning,0833.8,5.01,000.00,028.4,024.4,000.0,036.8,030.0,15.7,0003.2,0005.86,0016.99,0004.59
2023-09-27 04:24:00,SystemResetWarning,0833.8,5.00,000.00,028.3,024.5,000.0,036.7,029.8,15.8,0003.0,0005.82,0017.40,0004.59
2023-09-27 04:25:00,SystemResetWarning,0833.8,5.00,000.00,028.2,024.8,000.0,036.8,029.7,15.8,0003.2,0005.88,0018.38,0004.59
2023-09-27 04:26:00,SystemResetWarning,0833.8,5.00,000.00,028.2,025.2,000.0,036.8,029.8,15.9,0003.1,0005.89,0018.12,0004.58
2023-09-27 04:27:00,SystemResetWarning,0833.7,5.00,000.00,028.2,025.6,000.0,036.7,029.8,15.9,0002.1,0005.85,0018.33,0004.57
2023-09-27 04:28:00,SystemResetWarning,0833.8,5.00,000.00,028.1,025.9,000.0,036.7,029.9,15.9,0001.3,0005.87,0018.29,0004.57
2023-09-27 04:29:00,SystemResetWarning,0833.8,4.99,000.00,028.1,026.1,000.0,036.7,029.9,15.9,0001.4,0005.91,0017.13,0004.55
2023-09-27 04:30:00,SystemResetWarning,0833.8,5.00,000.00,028.2,026.3,000.0,036.7,029.9,15.9,0002.2,0005.96,0017.39,0004.55
2023-09-27 04:31:00,SystemResetWarning,0833.8,5.01,000.00,028.2,026.5,000.0,036.7,030.0,15.8,0002.4,0005.95,0017.69,0004.53
2023-09-27 04:32:00,SystemResetWarning,0833.8,5.00,000.00,028.2,026.7,000.0,036.7,030.0,15.8,0002.5,0005.98,0017.28,0004.51
2023-09-27 04:33:00,SystemResetWarning,0833.8,5.00,000.00,028.2,026.8,000.0,036.7,030.0,15.7,0002.1,0006.04,0017.92,0004.50
2023-09-27 04:34:00,SystemResetWarning,0833.8,5.00,000.00,028.3,026.9,000.0,036.7,030.1,15.7,0001.9,0006.01,0018.19,0004.49
2023-09-27 04:35:00,SystemResetWarning,0833.8,5.00,000.00,028.3,027.0,000.0,036.7,030.1,15.6,0002.4,0006.05,0017.49,0004.49
2023-09-27 04:36:00,SystemResetWarning,0833.8,5.00,000.00,028.3,027.1,000.0,036.8,030.1,15.6,0002.7,0006.04,0017.57,0004.48
2023-09-27 04:37:00,SystemResetWarning,0833.8,5.00,000.00,028.3,027.1,000.0,036.8,030.2,15.6,0002.6,0006.05,0017.23,0004.49
2023-09-27 04:38:00,SystemResetWarning,0833.8,5.00,000.00,028.4,027.2,000.0,036.8,030.2,15.6,0002.8,0006.12,0017.14,0004.48
2023-09-27 04:39:00,SystemResetWarning,0833.8,5.00,000.00,028.4,027.3,000.0,036.8,030.2,15.6,0003.2,0006.16,0017.65,0004.48
2023-09-27 04:40:00,SystemResetWarning,0833.8,5.00,000.00,028.4,027.3,000.0,036.8,030.3,15.5,0000.5,0006.12,0018.07,0004.46
2023-09-27 04:41:00,SystemResetWarning,0833.8,5.00,000.00,028.5,027.4,000.0,036.8,030.3,15.5,0000.0,0006.08,0018.13,0004.45
2023-09-27 04:42:00,SystemResetWarning,0833.8,5.00,000.00,028.5,027.4,000.0,036.9,030.3,15.3,0000.0,0006.07,0018.53,0004.45
2023-09-27 04:43:00,SystemResetWarning,0833.8,5.00,000.00,028.5,027.5,000.0,036.9,030.3,15.2,0000.0,0006.01,0018.68,0004.44
2023-09-27 04:44:00,SystemResetWarning,0833.8,5.00,000.00,028.6,027.4,000.0,036.9,030.4,15.1,0000.0,0006.05,0018.64,0004.43
2023-09-27 04:45:00,SystemResetWarning,0833.8,4.99,000.00,028.6,026.1,000.0,036.9,030.3,15.1,0001.5,0006.06,0018.04,0004.42
2023-09-27 04:46:00,SystemResetWarning,0833.8,5.01,000.00,028.5,024.6,000.0,036.8,030.1,15.1,0001.8,0006.02,0017.82,0004.40
2023-09-27 04:47:00,SystemResetWarning,0833.8,5.02,000.00,028.4,024.4,000.0,036.8,029.9,15.2,0002.0,0005.98,0016.68,0004.39
2023-09-27 04:48:00,SystemResetWarning,0833.8,5.00,000.00,028.3,024.6,000.0,036.8,029.8,15.3,0001.0,0005.97,0017.09,0004.38
2023-09-27 04:49:00,SystemResetWarning,0833.7,5.00,000.00,028.2,025.0,000.0,036.8,029.8,15.4,0000.0,0005.95,0018.08,0004.37
2023-09-27 04:50:00,SystemResetWarning,0833.8,5.00,000.00,028.2,025.4,000.0,036.8,029.8,15.5,0000.0,0005.91,0018.56,0004.37
2023-09-27 04:51:00,SystemResetWarning,0833.8,5.00,000.00,028.2,025.7,000.0,036.8,029.8,15.6,0000.0,0005.90,0019.88,0004.38
2023-09-27 04:52:00,SystemResetWarning,0833.8,5.00,000.00,028.2,026.0,000.0,036.8,029.9,15.6,0000.0,0005.85,0020.71,0004.37
2023-09-27 04:53:00,SystemResetWarning,0833.7,5.00,000.00,028.2,026.2,000.0,036.8,029.9,15.6,0002.1,0005.88,0019.88,0004.38
2023-09-27 04:54:00,SystemResetWarning,0833.7,5.00,000.00,028.2,026.4,000.0,036.8,030.0,15.6,0002.6,0005.91,0019.91,0004.38
2023-09-27 04:55:00,SystemResetWarning,0833.7,5.00,000.00,028.2,026.6,000.0,036.8,030.0,15.6,0003.3,0005.88,0020.55,0004.38
2023-09-27 04:56:00,SystemResetWarning,0833.7,5.01,000.00,028.2,026.7,000.0,036.8,030.0,15.6,0003.2,0005.89,0020.69,0004.40
2023-09-27 04:57:00,SystemResetWarning,0833.7,4.99,000.00,028.2,026.8,000.0,036.8,030.1,15.6,0003.0,0005.90,0021.61,0004.42
2023-09-27 04:58:00,SystemResetWarning,0833.7,4.99,000.00,028.3,026.9,000.0,036.8,030.1,15.5,0002.6,0005.97,0023.01,0004.43
2023-09-27 04:59:00,SystemResetWarning,0833.7,5.00,000.00,028.3,027.0,000.0,036.8,030.1,15.5,0002.5,0006.00,0023.28,0004.44
